FW4319 Weather Reports


Display with metric or nautical units.
time (UTC)temp
F
wind
direction
speed
MPH
gust
MPH
rain 1hr
in
rain 24hr
in
rain mn
in
humidity
%
barometer
mb
20260507024607 66 115 0.0 1.0 0.00 0.00 0.00 69 1015.8
20260507023055 67 115 1.0 3.0 0.00 0.00 0.00 66 1015.7
20260507021555 69 115 1.0 3.0 0.00 0.00 0.00 63 1015.6
20260507020109 70 114 0.0 3.0 0.00 0.00 0.00 61 1015.6
20260507014555 71 114 0.0 3.0 0.00 0.00 0.00 59 1015.5
20260507013056 73 115 0.0 2.0 0.00 0.00 0.00 56 1015.4
20260507011549 74 115 0.0 3.0 0.00 0.00 0.00 55 1015.3
20260507010053 74 114 0.0 6.0 0.00 0.00 0.00 54 1015.0
20260507004554 76 115 0.0 3.0 0.00 0.00 0.00 51 1015.0
20260507003049 77 115 1.0 2.0 0.00 0.00 0.00 50 1015.0
20260507001547 77 114 1.0 4.0 0.00 0.00 0.00 49 1015.0
20260507000043 77 114 1.0 4.0 0.00 0.00 0.00 48 1014.9
20260506234548 77 114 0.0 3.0 0.00 0.00 0.00 47 1014.9
20260506233051 78 115 1.0 4.0 0.00 0.00 0.00 45 1015.0
20260506231539 77 115 2.0 4.0 0.00 0.00 0.00 44 1015.1
20260506230045 77 115 1.0 4.0 0.00 0.00 0.00 47 1015.3
20260506224536 77 114 1.0 5.0 0.00 0.00 0.00 48 1015.3
20260506223041 77 115 0.0 4.0 0.00 0.00 0.00 47 1015.5
20260506221530 77 115 1.0 6.0 0.00 0.00 0.00 47 1015.7
20260506220029 77 114 1.0 4.0 0.00 0.00 0.00 47 1015.8
20260506214537 77 114 1.0 5.0 0.00 0.00 0.00 46 1016.1
20260506213025 76 115 0.0 6.0 0.00 0.00 0.00 48 1016.3
20260506211522 76 114 1.0 3.0 0.00 0.00 0.00 45 1016.4
20260506210021 75 114 0.0 3.0 0.00 0.00 0.00 47 1016.7
20260506204516 74 115 0.0 3.0 0.00 0.00 0.00 48 1016.9
20260506203012 72 115 2.0 7.0 0.00 0.00 0.00 50 1017.0
20260506201512 72 115 2.0 5.0 0.00 0.00 0.00 54 1017.2
20260506200007 71 115 0.0 5.0 0.00 0.00 0.00 54 1017.5
20260506194505 70 114 1.0 6.0 0.00 0.00 0.00 54 1017.6
20260506193003 70 115 0.0 4.0 0.00 0.00 0.00 54 1017.8
20260506191502 69 115 1.0 4.0 0.00 0.00 0.00 56 1018.0
20260506190004 68 115 1.0 4.0 0.00 0.00 0.00 58 1018.1
20260506184604 68 115 0.0 4.0 0.00 0.00 0.00 59 1018.3
20260506183104 67 114 1.0 3.0 0.00 0.00 0.00 59 1018.5
20260506181620 66 114 0.0 4.0 0.00 0.00 0.00 61 1018.6
20260506180052 65 114 2.0 6.0 0.00 0.00 0.00 59 1018.7
20260506174550 64 114 0.0 3.0 0.00 0.00 0.00 64 1018.7
20260506173058 64 115 0.0 4.0 0.00 0.00 0.00 63 1018.7
20260506171545 62 114 1.0 5.0 0.00 0.00 0.00 65 1018.7
20260506170047 61 114 1.0 5.0 0.00 0.00 0.00 64 1018.7
20260506164541 60 115 0.0 3.0 0.00 0.00 0.00 69 1018.7
20260506163040 59 114 0.0 2.0 0.00 0.00 0.00 70 1018.7
20260506161535 58 114 0.0 3.0 0.00 0.00 0.00 71 1018.8
20260506160034 58 114 0.0 4.0 0.00 0.00 0.00 74 1018.7
20260506154528 56 114 0.0 0.0 0.00 0.00 0.00 75 1018.6
20260506153024 55 114 0.0 0.0 0.00 0.00 0.00 77 1018.7
20260506151521 53 114 0.0 0.0 0.00 0.00 0.00 81 1018.8
20260506150018 52 114 0.0 0.0 0.00 0.00 0.00 83 1018.8
20260506144519 51 114 0.0 0.0 0.00 0.00 0.00 83 1018.8
20260506143014 51 114 0.0 0.0 0.00 0.00 0.00 86 1018.7
20260506141507 49 115 0.0 0.0 0.00 0.00 0.00 90 1018.6
20260506140005 0 0.0 0.0 0.00 0.00 0.00 1018.5
20260506134559 0 0.0 0.0 0.00 0.00 0.00 1018.5
20260506133055 0 0.0 0.0 0.00 0.00 0.00 1018.3
20260506131554 0 0.0 0.0 0.00 0.00 0.00 1018.0
20260506130046 0 0.0 0.0 0.00 0.00 0.00 1017.9
20260506124543 0 188 0.0 0.0 0.00 0.01 0.00 1017.9
20260506123040 46 190 0.0 0.0 0.00 0.01 0.00 90 1017.8
20260506121539 46 190 0.0 0.0 0.00 0.01 0.00 90 1017.7
20260506120041 46 190 0.0 0.0 0.00 0.01 0.00 90 1017.6
20260506114538 46 190 0.0 0.0 0.00 0.04 0.00 90 1017.7
20260506113041 46 190 0.0 0.0 0.00 0.04 0.00 89 1017.6
20260506111536 46 190 0.0 0.0 0.00 0.04 0.00 90 1017.5
20260506110036 46 190 0.0 0.0 0.00 0.04 0.00 90 1017.5
20260506104535 46 190 0.0 0.0 0.00 0.12 0.00 89 1017.6
20260506103032 46 190 0.0 0.0 0.00 0.12 0.00 89 1017.6
20260506101531 47 190 0.0 0.0 0.00 0.12 0.00 88 1017.6
20260506100034 47 190 0.0 0.0 0.00 0.12 0.00 88 1017.6
20260506094530 47 190 0.0 0.0 0.00 0.15 0.00 88 1017.6
20260506093028 47 190 0.0 0.0 0.00 0.15 0.00 88 1017.6
20260506091528 47 190 0.0 0.0 0.00 0.15 0.00 88 1017.6
20260506090029 47 190 0.0 0.0 0.00 0.15 0.00 88 1017.7
20260506084525 47 190 0.0 0.0 0.00 0.15 0.00 87 1017.7
20260506083023 47 190 0.0 0.0 0.00 0.15 0.00 87 1017.9
20260506081521 48 190 0.0 0.0 0.00 0.15 0.00 87 1017.9
20260506073019 48 190 0.0 0.0 0.00 0.15 0.00 86 1017.9
20260506071518 48 190 0.0 0.0 0.00 0.15 0.00 86 1018.0
20260506061510 49 188 0.0 0.0 0.00 0.15 0.15 84 1017.5
20260506050105 53 190 0.0 1.0 0.00 0.15 0.15 75 1016.7
20260506044555 53 190 0.0 2.0 0.00 0.15 0.15 75 1016.6
20260506043054 53 190 0.0 2.0 0.00 0.15 0.15 75 1016.4
20260506041652 53 190 0.0 2.0 0.00 0.15 0.15 75 1016.0
20260506040050 53 190 0.0 2.0 0.00 0.15 0.15 74 1016.0
20260506034600 54 190 0.0 3.0 0.00 0.15 0.15 72 1015.8
20260506033045 54 190 0.0 1.0 0.00 0.15 0.15 72 1015.5
20260506031544 54 190 0.0 2.0 0.00 0.15 0.15 73 1015.2
20260506030043 54 190 0.0 2.0 0.00 0.15 0.15 73 1015.0